Home > Weather > Cabinda > Past weeks

Flag for Angola Past Weather in Cabinda, Angola — Yesterday and Last 2 Weeks

Now
73 °F

Clear.


Feels Like: 76 °F
Forecast: 69 / 74 °F
Wind: 6 mph from West

Location: Pointe Airport-Noire

Current Time: Jul 27, 2016 at 8:17:24 PM

Latest Report: Jul 27, 2016 at 7:00 PM


Visibility: 5 mi

Pressure: 29.95 "Hg

Humidity: 69%

Dew Point: 63 °F

Location of CabindaLocation

Past Weather in Cabinda — Graph

°F

Cabinda Temperature Yesterday

Maximum temperature yesterday: 77 °F (at 12:00 PM)
Minimum temperature yesterday: 66 °F (at 4:00 AM)
Average temperature yesterday: 72 °F

High & Low Weather Summary for the Past Weeks

 TemperatureHumidityPressure
High82 °F (Jul 17, 4:00 PM)100% (Jul 13, 12:00 AM)30.04 "Hg (Jul 13, 12:00 AM)
Low66 °F (Jul 26, 4:00 AM)44% (Jul 26, 2:00 PM)29.86 "Hg (Jul 15, 3:00 PM)
Average74 °F83%29.96 "Hg
* Reported Jul 12 7:00 PM — Jul 27 7:00 PM, Cabinda, Weather by CustomWeather, © 2016

Note: Actual official high and low records may vary slightly from our data, if they occured in-between our weather recording intervals... More about our weather records

Advertising

Cabinda Weather History for the Previous 24 Hours

Scroll right to see more
 ConditionsComfort  
Time TempWeatherWind HumidityBarometerVisibility
7:00 PM
Wed, Jul 27
73 °FClear.6 mph69%29.95 "Hg5 mi
6:00 PM75 °FPassing clouds.7 mph61%29.92 "Hg5 mi
5:00 PM75 °FSunny.12 mph61%29.92 "Hg10 mi
4:00 PM77 °FPassing clouds.10 mph57%29.92 "HgN/A
3:00 PM77 °FPassing clouds.13 mph61%29.95 "HgN/A
2:00 PM77 °FPassing clouds.14 mph61%29.95 "HgN/A
1:00 PM77 °FPassing clouds.12 mph61%29.98 "HgN/A
12:00 PM79 °FPassing clouds.16 mph54%30.01 "HgN/A
11:00 AM79 °FPassing clouds.14 mph58%30.01 "Hg6 mi
10:00 AM75 °FPartly sunny.9 mph74%30.04 "Hg5 mi
9:00 AM72 °FPartly sunny.9 mph83%30.04 "Hg4 mi
8:00 AM70 °FFog.8 mph88%30.01 "Hg2 mi
7:00 AM68 °FFog.2 mph94%30.01 "Hg2 mi
6:00 AM66 °FFog.2 mph100%29.98 "Hg2 mi
5:00 AM66 °FFog.3 mph94%29.98 "Hg2 mi
4:00 AM66 °FFog.2 mph94%29.98 "Hg2 mi
2:00 AM66 °FFog.2 mph94%29.98 "Hg2 mi
1:00 AM68 °FFog.No wind94%29.98 "Hg1 mi
12:00 AM72 °FPassing clouds.No wind88%29.98 "Hg4 mi
11:00 PM
Tue, Jul 26
72 °FClear.2 mph88%29.98 "Hg4 mi
10:00 PM72 °FPassing clouds.3 mph88%29.98 "Hg4 mi
9:00 PM73 °FPassing clouds.2 mph83%29.98 "Hg4 mi
8:00 PM73 °FClear.5 mph69%29.95 "Hg5 mi
Weather by CustomWeather, © 2016

See weather overviewHow to use our weather pages